TimeCET,TemperatureF,Dew PointF,Humidity,Sea Level PressureIn,VisibilityMPH,Wind Direction,Wind SpeedMPH,Gust SpeedMPH,PrecipitationIn,Events,Conditions,WindDirDegrees,DateUTC
12:25 AM,48.2,48.2,100,30.42,6.2,SSE,1.2,-,N/A,,Overcast,150,2012-11-13 23:25:00
12:55 AM,48.2,46.4,93,30.42,6.2,SE,3.5,-,N/A,,Overcast,140,2012-11-13 23:55:00
1:25 AM,48.2,46.4,93,30.42,5.6,ESE,2.3,-,N/A,,Overcast,120,2012-11-14 00:25:00
1:55 AM,48.2,46.4,93,30.42,5.6,East,2.3,-,N/A,,Overcast,100,2012-11-14 00:55:00
2:09 AM,48.2,46.4,93,30.42,4.3,East,1.2,-,N/A,,Overcast,90,2012-11-14 01:09:00
2:10 AM,46.4,46.4,100,30.39,5.0,East,2.3,-,N/A,,Overcast,100,2012-11-14 01:10:00
2:25 AM,48.2,46.4,93,30.39,5.0,East,1.2,-,N/A,,Overcast,100,2012-11-14 01:25:00
2:49 AM,48.2,46.4,93,30.42,4.3,ESE,2.3,-,N/A,,Overcast,110,2012-11-14 01:49:00
2:55 AM,48.2,46.4,93,30.42,4.3,East,1.2,-,N/A,,Overcast,100,2012-11-14 01:55:00
2:59 AM,48.2,46.4,93,30.42,5.0,East,1.2,-,N/A,,Overcast,100,2012-11-14 01:59:00
3:11 AM,48.2,46.4,93,30.42,4.3,SE,1.2,-,N/A,,Overcast,130,2012-11-14 02:11:00
3:15 AM,48.2,46.4,93,30.42,5.0,ESE,1.2,-,N/A,,Overcast,110,2012-11-14 02:15:00
3:25 AM,48.2,46.4,93,30.42,5.0,East,2.3,-,N/A,,Overcast,100,2012-11-14 02:25:00
3:30 AM,48.2,46.4,93,30.42,4.3,ESE,2.3,-,N/A,,Overcast,110,2012-11-14 02:30:00
3:39 AM,48.2,46.4,93,30.39,5.0,ESE,2.3,-,N/A,,Overcast,110,2012-11-14 02:39:00
3:43 AM,48.2,46.4,93,30.39,4.3,ESE,2.3,-,N/A,,Overcast,110,2012-11-14 02:43:00
3:47 AM,48.2,46.4,93,30.39,5.0,ESE,2.3,-,N/A,,Overcast,110,2012-11-14 02:47:00
3:51 AM,48.2,46.4,93,30.39,4.3,ESE,2.3,-,N/A,,Overcast,110,2012-11-14 02:51:00
3:55 AM,48.2,46.4,93,30.39,4.3,ESE,2.3,-,N/A,,Overcast,110,2012-11-14 02:55:00
3:58 AM,48.2,46.4,93,30.39,5.0,East,2.3,-,N/A,,Overcast,100,2012-11-14 02:58:00
4:04 AM,48.2,46.4,93,30.39,4.3,East,2.3,-,N/A,,Overcast,100,2012-11-14 03:04:00
4:08 AM,48.2,46.4,93,30.39,5.0,East,2.3,-,N/A,,Overcast,100,2012-11-14 03:08:00
4:10 AM,48.2,46.4,93,30.39,4.3,ESE,2.3,-,N/A,,Overcast,110,2012-11-14 03:10:00
4:17 AM,48.2,46.4,93,30.39,5.0,East,2.3,-,N/A,,Overcast,100,2012-11-14 03:17:00
4:25 AM,46.4,46.4,100,30.39,5.0,ESE,2.3,-,N/A,,Overcast,110,2012-11-14 03:25:00
4:36 AM,46.4,46.4,100,30.39,4.3,ESE,2.3,-,N/A,,Overcast,110,2012-11-14 03:36:00
4:45 AM,46.4,46.4,100,30.39,5.0,ESE,1.2,-,N/A,,Overcast,120,2012-11-14 03:45:00
4:55 AM,46.4,46.4,100,30.39,4.3,ESE,1.2,-,N/A,,Overcast,110,2012-11-14 03:55:00
5:01 AM,46.4,46.4,100,30.39,5.0,East,1.2,-,N/A,,Overcast,100,2012-11-14 04:01:00
5:16 AM,46.4,46.4,100,30.39,5.0,ESE,1.2,-,N/A,,Overcast,120,2012-11-14 04:16:00
5:25 AM,46.4,46.4,100,30.39,4.3,East,1.2,-,N/A,,Overcast,100,2012-11-14 04:25:00
5:27 AM,46.4,46.4,100,30.39,5.0,ESE,1.2,-,N/A,,Overcast,110,2012-11-14 04:27:00
5:33 AM,46.4,46.4,100,30.39,4.3,East,2.3,-,N/A,,Overcast,100,2012-11-14 04:33:00
5:40 AM,46.4,46.4,100,30.39,5.0,East,2.3,-,N/A,,Overcast,90,2012-11-14 04:40:00
5:46 AM,46.4,46.4,100,30.39,4.3,East,2.3,-,N/A,,Overcast,80,2012-11-14 04:46:00
5:55 AM,46.4,46.4,100,30.39,3.7,East,3.5,-,N/A,,Overcast,80,2012-11-14 04:55:00
6:06 AM,46.4,46.4,100,30.39,3.1,East,3.5,-,N/A,,Overcast,90,2012-11-14 05:06:00
6:25 AM,46.4,46.4,100,30.39,4.3,East,3.5,-,N/A,,Overcast,90,2012-11-14 05:25:00
6:55 AM,46.4,46.4,100,30.39,4.3,East,4.6,-,N/A,,Overcast,100,2012-11-14 05:55:00
7:19 AM,46.4,46.4,100,30.39,4.3,East,4.6,-,N/A,,Overcast,90,2012-11-14 06:19:00
7:25 AM,46.4,46.4,100,30.39,4.3,East,4.6,-,N/A,,Overcast,90,2012-11-14 06:25:00
7:55 AM,46.4,46.4,100,30.39,4.3,East,4.6,-,N/A,,Overcast,90,2012-11-14 06:55:00
8:25 AM,46.4,44.6,93,30.39,4.3,East,3.5,-,N/A,,Mostly Cloudy,100,2012-11-14 07:25:00
8:29 AM,46.4,44.6,93,30.39,5.0,East,3.5,-,N/A,,Scattered Clouds,100,2012-11-14 07:29:00
8:33 AM,46.4,44.6,93,30.39,4.3,East,3.5,-,N/A,,Partly Cloudy,100,2012-11-14 07:33:00
8:55 AM,46.4,44.6,93,30.39,3.1,East,4.6,-,N/A,,Mist,80,2012-11-14 07:55:00
8:59 AM,46.4,44.6,93,30.39,5.0,East,4.6,-,N/A,,Mist,90,2012-11-14 07:59:00
9:10 AM,46.4,44.6,93,30.39,6.2,East,5.8,-,N/A,,Partly Cloudy,90,2012-11-14 08:10:00
9:25 AM,46.4,44.6,93,30.39,6.2,East,5.8,-,N/A,,Unknown,90,2012-11-14 08:25:00
9:26 AM,46.4,44.6,93,30.39,6.2,East,5.8,-,N/A,,Unknown,80,2012-11-14 08:26:00
9:55 AM,48.2,42.8,82,30.36,6.2,East,8.1,-,N/A,,Unknown,80,2012-11-14 08:55:00
10:25 AM,48.2,42.8,82,30.36,6.2,East,8.1,-,N/A,,Unknown,80,2012-11-14 09:25:00
10:55 AM,50.0,41.0,71,30.36,6.2,East,8.1,-,N/A,,Unknown,80,2012-11-14 09:55:00
11:25 AM,50.0,39.2,66,30.36,6.2,East,8.1,-,N/A,,Unknown,100,2012-11-14 10:25:00
11:55 AM,50.0,39.2,66,30.36,6.2,East,5.8,-,N/A,,Unknown,100,2012-11-14 10:55:00
12:25 PM,51.8,39.2,62,30.33,6.2,East,5.8,-,N/A,,Unknown,90,2012-11-14 11:25:00
12:55 PM,51.8,37.4,58,30.33,6.2,East,5.8,-,N/A,,Unknown,100,2012-11-14 11:55:00
1:25 PM,51.8,41.0,67,30.33,6.2,East,5.8,-,N/A,,Unknown,80,2012-11-14 12:25:00
1:55 PM,51.8,39.2,62,30.30,6.2,ENE,8.1,-,N/A,,Unknown,70,2012-11-14 12:55:00
2:25 PM,51.8,37.4,58,30.30,6.2,East,6.9,-,N/A,,Unknown,80,2012-11-14 13:25:00
2:55 PM,53.6,39.2,58,30.30,6.2,East,6.9,-,N/A,,Unknown,80,2012-11-14 13:55:00
3:25 PM,51.8,41.0,67,30.30,6.2,ENE,8.1,-,N/A,,Unknown,70,2012-11-14 14:25:00
3:55 PM,51.8,41.0,67,30.27,6.2,East,6.9,-,N/A,,Unknown,80,2012-11-14 14:55:00
3:57 PM,51.8,41.0,67,30.27,6.2,East,6.9,-,N/A,,Unknown,80,2012-11-14 14:57:00
4:25 PM,48.2,41.0,76,30.27,6.2,ENE,9.2,-,N/A,,Unknown,70,2012-11-14 15:25:00
4:55 PM,44.6,39.2,81,30.30,6.2,ENE,5.8,-,N/A,,Unknown,60,2012-11-14 15:55:00
5:25 PM,42.8,39.2,87,30.30,6.2,ENE,5.8,-,N/A,,Unknown,60,2012-11-14 16:25:00
5:55 PM,41.0,39.2,93,30.30,6.2,ENE,4.6,-,N/A,,Unknown,70,2012-11-14 16:55:00
6:25 PM,42.8,39.2,87,30.30,6.2,ENE,5.8,-,N/A,,Partly Cloudy,60,2012-11-14 17:25:00
6:55 PM,41.0,39.2,93,30.30,6.2,East,5.8,-,N/A,,Unknown,80,2012-11-14 17:55:00
7:25 PM,41.0,37.4,87,30.27,5.6,East,6.9,-,N/A,,Mist,80,2012-11-14 18:25:00
7:55 PM,37.4,35.6,93,30.27,5.0,ENE,5.8,-,N/A,,Mist,70,2012-11-14 18:55:00
7:59 PM,37.4,35.6,93,30.27,4.3,ENE,6.9,-,N/A,,Mist,70,2012-11-14 18:59:00
8:03 PM,39.2,37.4,93,30.27,5.0,ENE,6.9,-,N/A,,Mist,70,2012-11-14 19:03:00
8:13 PM,39.2,37.4,93,30.27,5.6,ENE,6.9,-,N/A,,Mist,70,2012-11-14 19:13:00
8:25 PM,39.2,37.4,93,30.27,6.2,ENE,6.9,-,N/A,,Unknown,70,2012-11-14 19:25:00
8:55 PM,37.4,35.6,93,30.27,5.6,ENE,4.6,-,N/A,,Mist,70,2012-11-14 19:55:00
9:25 PM,37.4,35.6,93,30.27,5.6,East,3.5,-,N/A,,Mist,80,2012-11-14 20:25:00
9:36 PM,35.6,33.8,93,30.27,4.3,East,2.3,-,N/A,,Mist,90,2012-11-14 20:36:00
9:40 PM,35.6,35.6,100,30.27,5.0,East,3.5,-,N/A,,Mist,90,2012-11-14 20:40:00
9:44 PM,35.6,32.0,87,30.27,4.3,East,3.5,-,N/A,,Mist,80,2012-11-14 20:44:00
9:45 PM,33.8,32.0,93,30.27,5.0,East,3.5,-,N/A,,Mist,80,2012-11-14 20:45:00
9:55 PM,33.8,33.8,100,30.27,5.0,East,3.5,-,N/A,,Mist,80,2012-11-14 20:55:00
9:56 PM,33.8,33.8,100,30.27,4.3,East,3.5,-,N/A,,Mist,80,2012-11-14 20:56:00
10:04 PM,35.6,33.8,93,30.27,5.0,East,2.3,-,N/A,,Mist,90,2012-11-14 21:04:00
10:12 PM,33.8,33.8,100,30.27,4.3,East,2.3,-,N/A,,Mist,100,2012-11-14 21:12:00
10:15 PM,33.8,33.8,100,30.27,5.0,Calm,Calm,-,N/A,,Mist,0,2012-11-14 21:15:00
10:25 PM,33.8,33.8,100,30.27,4.3,Calm,Calm,-,N/A,,Mist,0,2012-11-14 21:25:00
10:32 PM,35.6,33.8,93,30.27,5.0,NNE,1.2,-,N/A,,Mist,30,2012-11-14 21:32:00
10:33 PM,35.6,33.8,93,30.27,4.3,NE,1.2,-,N/A,,Mist,40,2012-11-14 21:33:00
10:55 PM,33.8,33.8,100,30.27,-9999.0,East,2.3,-,N/A,,Mist,100,2012-11-14 21:55:00
10:59 PM,33.8,33.8,100,30.27,4.3,East,2.3,-,N/A,,Mist,100,2012-11-14 21:59:00
11:06 PM,33.8,33.8,100,30.27,-9999.0,East,1.2,-,N/A,,Mist,90,2012-11-14 22:06:00
11:11 PM,32.0,32.0,100,30.27,3.1,East,1.2,-,N/A,,Mist,90,2012-11-14 22:11:00
11:14 PM,33.8,32.0,93,30.27,-9999.0,ENE,1.2,-,N/A,,Mist,70,2012-11-14 22:14:00
11:20 PM,33.8,33.8,100,30.27,3.1,ENE,2.3,-,N/A,,Mist,60,2012-11-14 22:20:00
11:25 PM,33.8,32.0,93,30.27,3.1,ENE,2.3,-,N/A,,Mist,60,2012-11-14 22:25:00
11:31 PM,33.8,32.0,93,30.27,-9999.0,East,2.3,-,N/A,,Mist,90,2012-11-14 22:31:00
11:34 PM,33.8,32.0,93,30.27,3.1,East,2.3,-,N/A,,Mist,100,2012-11-14 22:34:00
11:41 PM,32.0,32.0,100,30.27,2.8,East,2.3,-,N/A,,Mist,90,2012-11-14 22:41:00
11:42 PM,32.0,32.0,100,30.27,3.1,ENE,1.2,-,N/A,,Mist,60,2012-11-14 22:42:00
11:55 PM,32.0,32.0,100,30.27,3.1,NNE,1.2,-,N/A,,Mist,20,2012-11-14 22:55:00
11:59 PM,32.0,32.0,100,30.27,-9999.0,NNE,2.3,-,N/A,,Mist,30,2012-11-14 22:59:00